Regional Weather Roundup
Issued by NWS

Home | Current Version | Previous Version | Text Only | Print | Product List | Glossary Off
Versions: 1 2 3 4 5 6 7 8 9 10 11 12 13 14 15 16 17 18 19 20 21 22 23 24 25 26 27 28 29 30 31 32 33 34 35 36 37 38 39 40 41 42 43 44 45 46 47 48 49 50

000
ASUS43 KOAX 210902
RWRNE

WEATHER ROUNDUP FOR NEBRASKA
NATIONAL WEATHER SERVICE OMAHA NE
400 AM CDT SAT OCT 21 2017

NOTES: SATELLITE DATA IS BEING USED TO AUGMENT CLOUD COVER ABOVE
       12000 FEET.
       "FAIR" INDICATES FEW OR NO CLOUDS BELOW 12,000 FEET WITH NO
       SIGNIFICANT WEATHER AND/OR OBSTRUCTIONS TO VISIBILITY.


NEZ001>004-019>022-054>056-211000-
NEBRASKA PANHANDLE

CITY           SKY/WX    TMP DP  RH WIND       PRES   REMARKS
SCOTTSBLUFF    CLOUDY    51  24  34 W17G26    29.67R
ALLIANCE       CLOUDY    54  29  38 NW22G36   29.58R
CHADRON        CLOUDY    57  21  24 W24G32    29.61S
GORDON         FAIR      57  34  41 NW28G38   29.53S
KIMBALL        CLOUDY    47  19  34 NW26G39   29.68R
SIDNEY         CLOUDY    49  29  46 NW28G36   29.62R
$$

NEZ057>060-069>072-079>082-211000-
SOUTHWEST NEBRASKA

CITY           SKY/WX    TMP DP  RH WIND       PRES   REMARKS
NORTH PLATTE   CLOUDY    62  55  77 SW6       29.46R
IMPERIAL       PTCLDY    55  41  59 NW15      29.50R
LEXINGTON      CLEAR     65  57  76 S18       29.46F
MCCOOK         CLOUDY    65  54  67 SW20G31   29.46S
OGALLALA       CLOUDY    59  41  52 NW18G24   29.51R
$$

NEZ005>010-023>029-035>040-094-211000-
NORTH CENTRAL NEBRASKA

CITY           SKY/WX    TMP DP  RH WIND       PRES   REMARKS
VALENTINE      CLOUDY    59  54  83 SW9       29.46S
AINSWORTH      PTCLDY    59  56  92 SW7       29.48F
BROKEN BOW     CLEAR     63  57  81 S9        29.45F
O`NEILL        PTCLDY    64  60  86 S13G21    29.45F
ORD            CLEAR     66  59  78 S14       29.46F
THEDFORD       MOCLDY    57  55  91 W3        29.50F
$$

NEZ041-046>049-061>064-073>077-083>087-211000-
SOUTH CENTRAL NEBRASKA

CITY           SKY/WX    TMP DP  RH WIND       PRES   REMARKS
GRAND ISLAND   MOCLDY    69  62  78 S24G35    29.52F
AURORA         MOCLDY    69  62  78 S22G36    29.54F
HASTINGS       CLOUDY    68  60  75 S18G33    29.54F
HEBRON         CLOUDY    71  62  73 S31G40    29.59F
HOLDREGE       CLEAR     65  59  81 S20G28    29.49F
KEARNEY        CLEAR     66  60  81 S25G32    29.49F
YORK           CLOUDY    68  63  83 S28G38    29.56F
$$

NEZ011>018-030>034-042>045-211000-
NORTHEAST NEBRASKA

CITY           SKY/WX    TMP DP  RH WIND       PRES   REMARKS
NORFOLK        CLOUDY    67  60  78 S21G29    29.51F
ALBION         CLOUDY    69  62  78 S18G28    29.51F
BLAIR          CLOUDY    66  61  82 S17G30    29.61F
COLUMBUS       CLOUDY    69  61  75 S18G28    29.54F
FREMONT        CLOUDY    68  59  74 S18G28    29.58F
TEKAMAH        CLOUDY    66  59  78 SE13G22   29.59F
WAYNE          CLOUDY    69  62  79 S21G28    29.53F
$$

NEZ050>053-065>068-078-088>093-211000-
SOUTHEAST NEBRASKA

CITY           SKY/WX    TMP DP  RH WIND       PRES   REMARKS
LINCOLN        CLOUDY    69  61  75 S29G38    29.58F
OMAHA EPPLEY   CLOUDY    66  60  81 S21G32    29.63F
BEATRICE       CLOUDY    69  62  79 S24G33    29.63F
FALLS CITY     CLOUDY    67  60  78 S20G28    29.71F
NEBRASKA CITY  CLOUDY    65  64  94 S18G26    29.67F
PLATTSMOUTH    CLOUDY    65  62  90 S13G21    29.65F THUNDER
$$

NEZ044-045-051>053-067-211000-
OMAHA AREA

CITY           SKY/WX    TMP DP  RH WIND       PRES   REMARKS
OMAHA EPPLEY   CLOUDY    66  60  81 S21G32    29.63F
BLAIR          CLOUDY    66  61  82 S17G30    29.61F
FREMONT        CLOUDY    68  59  74 S18G28    29.58F
MILLARD        CLOUDY    68  62  79 S14G24    29.63F
OFFUTT AFB     CLOUDY    65  60  85 SE20      29.63F
PLATTSMOUTH    CLOUDY    65  62  90 S13G21    29.65F THUNDER
WAHOO          CLOUDY    69  60  74 S21G32    29.59F
$$




USA.gov is the U.S. government's official web portal to all federal, state and local government web resources and services.